Location: Unspecified
(0.0000°N, 0.0000°E)
Time: 18:21:43
(UTC+00:00)

STARLINK 1062 - Pass Details

Date: 18 January 2020
Orbit: 548 x 551 km, 53.0° (Epoch: 17 January)

Event Time Altitude Azimuth Distance (km) Brightness Sun altitude
Rises 18:59:43 0° 299° (WNW) 2,702 7.8 -11.5°
Reaches altitude 10° 19:02:28 10° 280° (W) 1,813 7.2 -12.2°
Maximum altitude 19:05:22 19° 235° (SW) 1,357 6.7 -12.9°
Drops below altitude 10° 19:08:17 10° 190° (S) 1,818 6.7 -13.5°
Sets 19:11:04 0° 172° (S) 2,714 7.3 -14.2°
